This is the latest recevied weather packets stored in our database for station/object JH1LWU-13. If no packets are shown the sender has not sent any weather packets the latest 1 day(s).
| Time | Temp. | Humidity | Pressure | Rain* | Wind** | Luminosity | Snow |
|---|---|---|---|---|---|---|---|
| 1778056531 | 18.89° C | 62% | 1014 hPa | 0 mm | 0 m/s | - | - |
| 1778054730 | 18.89° C | 58% | 1015 hPa | 0 mm | 1.34 m/s, 191° | - | - |
| 1778052929 | 19.44° C | 59% | 1015 hPa | 0 mm | 0.89 m/s, 8° | - | - |
| 1778051128 | 20° C | 55% | 1015 hPa | 0 mm | 1.34 m/s, 297° | - | - |
| 1778049327 | 20° C | 55% | 1015 hPa | 0 mm | 0.45 m/s, 25° | - | - |
| 1778047526 | 20° C | 55% | 1016 hPa | 0 mm | 0.89 m/s, 163° | - | - |
| 1778045725 | 20° C | 53% | 1016 hPa | 0 mm | 0.45 m/s, 217° | - | - |
| 1778043924 | 20° C | 54% | 1016 hPa | 0 mm | 1.34 m/s, 291° | - | - |
| 1778042123 | 20° C | 51% | 1016 hPa | 0 mm | 0.89 m/s, 158° | - | - |
| 1778040322 | 20° C | 50% | 1016 hPa | 0 mm | 1.79 m/s, 328° | - | - |
| 1778038521 | 20.56° C | 48% | 1016 hPa | 0 mm | 2.24 m/s, 14° | - | - |
| 1778036720 | 20.56° C | 50% | 1017 hPa | 0 mm | 2.24 m/s, 27° | - | - |
| 1778034919 | 20.56° C | 49% | 1018 hPa | 0 mm | 1.34 m/s, 3° | - | - |
| 1778033118 | 20° C | 52% | 1018 hPa | 0 mm | 1.79 m/s, 138° | - | - |
| 1778031317 | 21.11° C | 47% | 1018 hPa | 0 mm | 0 m/s | - | - |
| 1778029516 | 20° C | 45% | 1017 hPa | 0 mm | 0 m/s | - | - |
| 1778027715 | 17.78° C | 48% | 1017 hPa | 0 mm | 0 m/s | - | - |
| 1778025914 | 17.22° C | 50% | 1018 hPa | 0 mm | 0 m/s | - | - |
| 1778024113 | 17.22° C | 49% | 1019 hPa | 0 mm | 0 m/s | - | - |
| 1778022312 | 17.22° C | 50% | 1019 hPa | 0 mm | 0 m/s | - | - |
| 1778020511 | 16.67° C | 51% | 1018 hPa | 0 mm | 0.45 m/s, 305° | - | - |
| 1778018710 | 15.56° C | 53% | 1018 hPa | 0 mm | 0 m/s | - | - |
| 1778016909 | 15.56° C | 55% | 1021 hPa | 0 mm | 0 m/s | - | - |
| 1778015108 | 16.11° C | 63% | 1022 hPa | 0 mm | 0.45 m/s, 308° | - | - |
| 1778013307 | 15.56° C | 64% | 1021 hPa | 0 mm | 0 m/s | - | - |
* Rain latest hour (hover to see other rain measurements)
** Current wind speed in m/s (hover to see current wind gust speed)